Flag for Spain Weather past 2 weeks in Málaga, Spain

Now
59 °F

Passing clouds.


Feels Like: 58 °F
Forecast: 45 / 57 °F
Wind: 6 mph from Southeast

Location: Malaga / Aeropuerto

Current Time: Jan 31, 2015 at 6:43:23 AM

Latest Report: Jan 31, 2015 at 6:00 AM


Visibility: N/A

Pressure: 29.62 "Hg

Humidity: 77%

Dew point: 52 °F

Location of MálagaLocation

Historic Weather in Málaga — Graph

°F

Málaga temperature yesterday

Maximum temperature yesterday: 68 °F (at 2:00 PM)
Minimum temperature yesterday: 57 °F (at 1:30 AM)
Average temperature yesterday: 62 °F

Past Weeks' High & Low Weather Summary

 TemperatureHumidityPressure
High70 °F (Jan 25, 3:30 PM)100% (Jan 18, 9:30 AM)30.36 "Hg (Jan 18, 9:30 AM)
Low39 °F (Jan 18, 12:00 AM)23% (Jan 25, 3:30 PM)29.62 "Hg (Jan 19, 4:30 AM)
Average53 °F64%30.09 "Hg
* Reported Jan 16 5:30 AM — Jan 31 5:30 AM, Málaga, Weather by CustomWeather, © 2014

Note: Actual official high and low records may vary slightly from our data, if they occured in-between our weather recording intervals... More about our weather records

Advertising

Málaga weather history for previous 24 hours

 ConditionsComfort  
Time TempWeatherWind HumidityBarometerVisibility
5:30 AM
Jan 31
61 °FPassing clouds.3 mph72%29.65 "HgN/A
5:00 AM61 °FPassing clouds.1 mph72%29.65 "HgN/A
4:00 AM63 °FPassing clouds.No wind68%29.68 "HgN/A
3:30 AM61 °FPassing clouds.1 mph72%29.68 "HgN/A
3:00 AM63 °FPassing clouds.6 mph68%29.68 "HgN/A
2:30 AM61 °FPassing clouds.5 mph77%29.71 "HgN/A
2:00 AM63 °FPassing clouds.6 mph68%29.71 "HgN/A
1:30 AM61 °FPassing clouds.2 mph77%29.74 "HgN/A
1:00 AM63 °FPassing clouds.6 mph68%29.74 "HgN/A
12:30 AM63 °FPassing clouds.No wind68%29.74 "HgN/A
12:00 AM64 °FPassing clouds.7 mph64%29.77 "HgN/A
11:30 PM
Jan 30
64 °FPassing clouds.3 mph64%29.77 "HgN/A
11:00 PM64 °FPassing clouds.8 mph64%29.77 "HgN/A
10:30 PM64 °FPassing clouds.2 mph68%29.77 "HgN/A
10:00 PM64 °FPassing clouds.7 mph68%29.80 "HgN/A
9:30 PM64 °FPassing clouds.2 mph68%29.80 "HgN/A
9:00 PM63 °FPassing clouds.No wind73%29.80 "HgN/A
8:30 PM64 °FPassing clouds.3 mph68%29.77 "HgN/A
8:00 PM64 °FPassing clouds.6 mph68%29.80 "HgN/A
7:30 PM64 °FPassing clouds.10 mph68%29.80 "HgN/A
7:00 PM64 °FPassing clouds.9 mph68%29.80 "HgN/A
6:30 PM64 °FPartly sunny.10 mph68%29.80 "HgN/A
6:00 PM64 °FPartly sunny.9 mph68%29.80 "HgN/A
5:30 PM64 °FPartly sunny.12 mph68%29.80 "HgN/A
5:00 PM64 °FPartly sunny.13 mph68%29.80 "HgN/A
4:30 PM64 °FPartly sunny.9 mph68%29.80 "HgN/A
4:00 PM66 °FPartly sunny.15 mph64%29.83 "HgN/A
3:30 PM66 °FPartly sunny.15 mph64%29.83 "HgN/A
3:00 PM66 °FPartly sunny.23 mph60%29.83 "HgN/A
2:30 PM68 °FPartly sunny.21 mph60%29.83 "HgN/A
2:00 PM68 °FPartly sunny.17 mph60%29.83 "HgN/A
1:30 PM66 °FPartly sunny.15 mph60%29.86 "HgN/A
1:00 PM66 °FPartly sunny.17 mph60%29.86 "HgN/A
12:30 PM66 °FPartly sunny.15 mph64%29.89 "HgN/A
12:00 PM66 °FPartly sunny.12 mph64%29.89 "HgN/A
11:30 AM63 °FPartly sunny.12 mph68%29.92 "HgN/A
11:00 AM63 °FPartly sunny.8 mph68%29.92 "HgN/A
10:30 AM63 °FPartly sunny.10 mph68%29.92 "HgN/A
10:00 AM61 °FPartly sunny.12 mph72%29.92 "HgN/A
9:30 AM61 °FPartly sunny.8 mph72%29.92 "HgN/A
9:00 AM61 °FPartly sunny.8 mph68%29.89 "HgN/A
8:30 AM59 °FPartly sunny.10 mph72%29.89 "HgN/A
8:00 AM61 °FPassing clouds.14 mph68%29.89 "HgN/A
7:30 AM61 °FPassing clouds.14 mph68%29.89 "HgN/A
7:00 AM61 °FPassing clouds.16 mph63%29.89 "HgN/A
6:30 AM61 °FPassing clouds.12 mph68%29.89 "HgN/A
6:00 AM59 °FPassing clouds.9 mph72%29.92 "HgN/A
Weather by CustomWeather, © 2014

See weather overviewHow to use our weather pages